EDT,Max TemperatureF,Mean TemperatureF,Min TemperatureF,Max Dew PointF,MeanDew PointF,Min DewpointF,Max Humidity, Mean Humidity, Min Humidity, Max Sea Level PressureIn, Mean Sea Level PressureIn, Min Sea Level PressureIn, Max VisibilityMiles, Mean VisibilityMiles, Min VisibilityMiles, Max Wind SpeedMPH, Mean Wind SpeedMPH, Max Gust SpeedMPH,PrecipitationIn, CloudCover, Events, WindDirDegrees
2013-7-1,90,84,78,74,72,70,85,72,59,30.04,29.97,29.92,10,10,7,25,10,31,0.01,7,,164
2013-7-2,89,84,78,75,73,69,85,73,61,30.11,30.05,29.99,10,10,10,22,11,29,0.00,6,,144
2013-7-3,89,83,77,75,73,70,74,67,59,30.14,30.09,30.06,10,9,0,26,12,33,0.50,6,Rain-Thunderstorm,135
2013-7-4,89,85,80,77,73,71,74,67,59,30.16,30.12,30.08,10,10,2,25,15,32,0.16,6,Rain-Thunderstorm,128
2013-7-5,89,84,78,74,72,70,74,66,57,30.14,30.11,30.06,10,9,2,25,14,31,0.27,6,Rain-Thunderstorm,117
2013-7-6,90,86,81,73,71,70,69,62,55,30.12,30.08,30.04,10,10,1,26,14,36,0.09,4,Rain,116
2013-7-7,90,86,81,73,71,68,69,61,53,30.11,30.08,30.04,10,10,10,21,12,25,T,4,Rain,101
2013-7-8,89,85,81,72,70,67,69,60,50,30.16,30.11,30.09,10,10,10,17,10,21,0.00,3,,94
2013-7-9,87,82,77,72,70,68,76,65,53,30.14,30.10,30.05,10,10,10,16,7,18,0.12,5,Rain,70
2013-7-10,87,81,74,72,70,67,82,74,65,30.09,30.06,30.01,10,10,8,22,7,28,0.21,6,Rain-Thunderstorm,126
2013-7-11,90,84,78,74,72,67,79,66,52,30.04,29.99,29.95,10,10,10,17,6,22,T,4,Rain,144
2013-7-12,91,83,75,74,71,68,82,67,52,29.97,29.94,29.91,10,8,0,18,4,22,1.35,5,Rain-Thunderstorm,136
2013-7-13,87,81,75,74,71,70,82,74,65,30.03,29.98,29.92,10,9,2,17,5,20,1.08,6,Rain-Thunderstorm,165
2013-7-14,88,82,75,72,71,69,87,71,55,30.10,30.05,29.99,10,10,10,21,7,24,0.12,6,Rain,146
2013-7-15,87,81,75,74,70,68,87,72,57,30.10,30.06,30.02,10,10,7,22,7,24,0.06,6,Rain,68
2013-7-16,85,80,74,72,70,66,79,69,58,30.17,30.11,30.06,10,8,0,31,12,38,0.85,7,Rain-Thunderstorm,112
2013-7-17,84,81,77,73,70,69,85,75,65,30.15,30.11,30.06,10,10,7,18,10,22,0.03,6,Rain-Thunderstorm,105
2013-7-18,84,79,74,77,72,70,87,80,72,30.13,30.10,30.07,10,9,2,9,7,9,0.57,6,Rain,135
2013-7-19,87,81,75,78,74,71,90,79,68,30.13,30.10,30.06,10,10,10,18,9,21,0.00,6,,125
2013-7-20,86,83,79,79,75,69,85,75,65,30.11,30.07,30.04,10,10,10,15,9,17,0.02,6,Rain-Thunderstorm,152
2013-7-21,90,84,77,75,72,68,79,69,59,30.15,30.11,30.05,10,10,10,17,6,24,0.08,6,Rain-Thunderstorm,144
2013-7-22,92,85,78,74,72,70,85,67,49,30.14,30.11,30.07,10,10,10,17,8,22,0.00,5,,148
2013-7-23,93,86,79,75,72,68,79,62,44,30.10,30.04,29.98,10,10,2,18,8,26,0.07,4,Rain,182
2013-7-24,94,86,78,74,70,64,85,63,41,30.00,29.96,29.91,10,10,10,17,9,22,T,6,,254
2013-7-25,94,86,78,73,71,70,79,64,49,30.01,29.97,29.92,10,10,10,17,9,21,0.00,5,,254
2013-7-26,93,87,80,73,72,69,79,66,52,30.02,29.99,29.94,10,10,10,17,9,22,T,6,Rain,249
2013-7-27,90,84,77,74,73,71,85,72,59,30.00,29.97,29.94,10,10,5,18,4,22,0.14,5,Rain-Thunderstorm,206
2013-7-28,87,82,76,75,73,68,82,74,65,30.07,30.02,29.96,10,10,7,16,4,22,0.11,5,Rain-Thunderstorm-Tornado,209
2013-7-29,91,84,76,74,72,71,85,71,56,30.14,30.09,30.03,10,10,10,18,7,22,0.00,5,Rain-Thunderstorm,103
2013-7-30,91,85,79,75,73,68,74,67,59,30.17,30.12,30.09,10,10,10,16,8,22,0.00,5,Rain-Thunderstorm,101
2013-7-31,91,87,83,74,72,70,74,65,56,30.12,30.07,30.02,10,10,10,18,11,23,0.00,4,,112